Voltar ao catálogo

STARLINK-36757

AtivoComunicaçõesSSO
NORAD 67728·PAYLOAD·🇺🇸 United States

Lançado Feb 11, 2026 de Vandenberg Space Force Base

Loading…

Próximas Passagens (próximas 24 horas)

TLE

AtualizadoSource: CelesTrak SupGP

Época: Sep 15, 2026, 03:33 UTC

1 67728C 26026H   26258.14840278  .00005633  00000+0  17482-3 0  2582
2 67728  97.2842 310.0285 0000840  86.9626  90.3453 15.33441643    11

Acompanhe STARLINK-36757 em tempo real com AllMySat

Download on the App Store